Hourly Data Report for June 05, 2004

TORONTO CITY
ONTARIO

43°40'00.000" N
79°24'00.000" W
112.50 m
6158355
71508
XTO

Download Data

Hourly Data (June 2004)
Hourly Data Report for June 5, 2004
TIME
LST
Temp Definition
°C
Dew Point Definition
°C
Rel Hum Definition
%
Precip. Amount Definition
mm

Wind Dir Definition
10's deg

Wind Spd Definition
km/h
Visibility Definition
km
Stn Press Definition
kPa
Hmdx Definition


Wind Chill Definition


Weather Definition


00:00 12.7 3.9 55   LegendMM LegendMM LegendMM 100.79     LegendNANA
01:00 12.6 4.1 56   LegendMM LegendMM LegendMM 100.75     LegendNANA
02:00 12.2 5.0 61   LegendMM LegendMM LegendMM 100.71     LegendNANA
03:00 12.0 5.6 65   LegendMM LegendMM LegendMM 100.68     LegendNANA
04:00 11.8 5.8 67   LegendMM LegendMM LegendMM 100.65     LegendNANA
05:00 11.7 5.3 65   LegendMM LegendMM LegendMM 100.65     LegendNANA
06:00 12.2 5.5 64   LegendMM LegendMM LegendMM 100.67     LegendNANA
07:00 14.4 6.5 59   LegendMM LegendMM LegendMM 100.67     LegendNANA
08:00 15.0 6.6 57   LegendMM LegendMM LegendMM 100.69     LegendNANA
09:00 15.9 7.2 56   LegendMM LegendMM LegendMM 100.69     LegendNANA
10:00 15.8 8.0 60   LegendMM LegendMM LegendMM 100.72     LegendNANA
11:00 15.9 9.2 64   LegendMM LegendMM LegendMM 100.71     LegendNANA
12:00 16.5 9.9 65   LegendMM LegendMM LegendMM 100.66     LegendNANA
13:00 18.6 11.3 62   LegendMM LegendMM LegendMM 100.63     LegendNANA
14:00 18.8 11.4 62   LegendMM LegendMM LegendMM 100.58     LegendNANA
15:00 19.5 10.2 55   LegendMM LegendMM LegendMM 100.54     LegendNANA
16:00 17.8 9.9 60   LegendMM LegendMM LegendMM 100.50     LegendNANA
17:00 17.0 9.7 62   LegendMM LegendMM LegendMM 100.47     LegendNANA
18:00 17.3 10.6 65   LegendMM LegendMM LegendMM 100.45     LegendNANA
19:00 16.7 10.6 67   LegendMM LegendMM LegendMM 100.45     LegendNANA
20:00 16.6 10.9 69   LegendMM LegendMM LegendMM 100.44     LegendNANA
21:00 15.9 11.4 75   LegendMM LegendMM LegendMM 100.47     LegendNANA
22:00 16.2 11.6 74   LegendMM LegendMM LegendMM 100.49     LegendNANA
23:00 15.6 11.4 76   LegendMM LegendMM LegendMM 100.47     LegendNANA

Notes on Data Quality.

Legend

  • E = Estimated
  • M = Missing
  • NA = Not Available*
  • [empty] = Indicates an unobserved value
Date modified: